Weather History for KRZL - May, 2013

Change the Weather History Date:

Tuesday, May 28, 2013

  Actual Average (KVPZ) Record (KVPZ)
Temperature  
Mean Temperature 70 °F 63 °F  
Max Temperature 78 °F 74 °F 93 °F (2012)
Min Temperature 62 °F 52 °F 40 °F (2008)
Degree Days  
Heating Degree Days 0 4  
Month to date heating degree days 208  
Since 1 July heating degree days 6267  
Cooling Degree Days 5 2  
Month to date cooling degree days 34  
Year to date cooling degree days 39  
Growing Degree Days 20 (Base 50)    
Moisture  
Dew Point 65 °F    
Average Humidity 83    
Maximum Humidity 100    
Minimum Humidity 69    
Precipitation  
Precipitation 0.53 in 0.11 in 1.18 in (2011)
Month to date precipitation 3.50  
Year to date precipitation 12.68  
Sea Level Pressure  
Sea Level Pressure 29.86 in    
Wind  
Wind Speed 12 mph (SSW)    
Max Wind Speed 26 mph    
Max Gust Speed 32 mph    
Visibility 10 miles    
Events Rain , Thunderstorm    
T = Trace of Precipitation, MM = Missing Value Source: NWS Daily Summary

Daily Weather History Graph

Daily Weather History Graph

Search for Another Location

Airport or City:

Trip Planner

Search our weather history database for the weather conditions in past years. The results will help you decide how hot, cold, wet, or windy it might be!

Date:

Astronomy

May. 28, 2013 Rise Set
Actual Time 5:20 AM CDT 8:11 PM CDT
Civil Twilight 4:48 AM CDT 8:44 PM CDT
Nautical Twilight 4:07 AM CDT 9:25 PM CDT
Astronomical Twilight 3:20 AM CDT 10:12 PM CDT
Moon 11:33 PM CDT 9:09 AM CDT
Length of Visible Light 15h 55m
Length of Day
14h 50m
Waning Gibbous, 82% of the Moon is Illuminated
May 28
Waning Gibbous
May 31
Last Quarter
Jun 8
New
Jun 16
First Quarter
Jun 23
Full

Hourly Weather History & Observations

Time (CDT) Temp. Dew Point Humidity Pressure Visibility Wind Dir Wind Speed Gust Speed Precip Events Conditions
12:15 AM 64.4 °F 62.6 °F 94% 29.90 in 10.0 mi South 12.7 mph 16.1 mph 0.01 in Rain Rain
12:35 AM 64.4 °F 62.6 °F 94% 29.90 in 10.0 mi South 6.9 mph - 0.02 in Rain , Thunderstorm Rain
12:55 AM 64.4 °F 62.6 °F 94% 29.90 in 10.0 mi South 9.2 mph - 0.02 in Rain Light Rain
1:15 AM 64.4 °F 62.6 °F 94% 29.89 in 2.0 mi SSE 16.1 mph 21.9 mph 0.27 in Rain Heavy Rain
1:35 AM 62.6 °F 62.6 °F 100% 29.91 in 7.0 mi Calm Calm - 0.32 in Rain , Thunderstorm Light Thunderstorms and Rain
1:55 AM 64.4 °F 62.6 °F 94% 29.89 in 10.0 mi Calm Calm - 0.32 in Thunderstorm Overcast
2:15 AM 62.6 °F 62.6 °F 100% 29.89 in 10.0 mi East 5.8 mph - N/A   Overcast
2:35 AM 62.6 °F 62.6 °F 100% 29.88 in 10.0 mi ESE 5.8 mph - N/A   Overcast
2:55 AM 62.6 °F 62.6 °F 100% 29.87 in 10.0 mi SE 8.1 mph - N/A   Overcast
3:15 AM 64.4 °F 62.6 °F 94% 29.87 in 10.0 mi SE 9.2 mph - N/A   Mostly Cloudy
3:35 AM 62.6 °F 62.6 °F 100% 29.87 in 10.0 mi SE 6.9 mph - N/A   Overcast
3:55 AM 62.6 °F 62.6 °F 100% 29.87 in 10.0 mi SE 6.9 mph - N/A   Mostly Cloudy
4:15 AM 62.6 °F 62.6 °F 100% 29.86 in 10.0 mi SSE 3.5 mph - N/A   Mostly Cloudy
4:35 AM 62.6 °F 60.8 °F 94% 29.86 in 10.0 mi SSE 4.6 mph - N/A   Mostly Cloudy
4:55 AM 64.4 °F 62.6 °F 94% 29.86 in 10.0 mi South 6.9 mph - N/A   Mostly Cloudy
5:15 AM 64.4 °F 60.8 °F 88% 29.86 in 10.0 mi South 6.9 mph - N/A   Scattered Clouds
5:35 AM 64.4 °F 60.8 °F 88% 29.86 in 10.0 mi South 10.4 mph 16.1 mph N/A   Clear
5:55 AM 64.4 °F 60.8 °F 88% 29.87 in 10.0 mi South 11.5 mph 18.4 mph N/A   Scattered Clouds
6:15 AM 64.4 °F 60.8 °F 88% 29.87 in 10.0 mi SSW 17.3 mph 21.9 mph N/A   Scattered Clouds
6:35 AM 66.2 °F 60.8 °F 83% 29.88 in 10.0 mi SSW 17.3 mph - N/A   Clear
6:55 AM 66.2 °F 60.8 °F 83% 29.87 in 10.0 mi South 16.1 mph 23.0 mph N/A   Clear
7:15 AM 68.0 °F 62.6 °F 83% 29.87 in 10.0 mi South 17.3 mph 23.0 mph N/A   Clear
7:35 AM 68.0 °F 62.6 °F 83% 29.86 in 10.0 mi SSW 16.1 mph 20.7 mph N/A   Scattered Clouds
7:55 AM 68.0 °F 62.6 °F 83% 29.86 in 10.0 mi SSW 13.8 mph - N/A   Mostly Cloudy
8:15 AM 68.0 °F 62.6 °F 83% 29.86 in 10.0 mi SSW 13.8 mph - 0.01 in   Scattered Clouds
8:35 AM 69.8 °F 62.6 °F 78% 29.86 in 10.0 mi SSW 15.0 mph 20.7 mph 0.01 in   Clear
8:55 AM 69.8 °F 64.4 °F 83% 29.86 in 10.0 mi South 16.1 mph 20.7 mph 0.01 in   Clear
9:15 AM 69.8 °F 64.4 °F 83% 29.88 in 10.0 mi SSW 17.3 mph 24.2 mph N/A Rain Light Rain
9:35 AM 69.8 °F 64.4 °F 83% 29.89 in 10.0 mi SSW 18.4 mph 24.2 mph N/A   Scattered Clouds
9:55 AM 71.6 °F 64.4 °F 78% 29.87 in 10.0 mi SSW 17.3 mph 27.6 mph N/A   Light Drizzle
10:15 AM 71.6 °F 64.4 °F 78% 29.84 in 10.0 mi South 20.7 mph 28.8 mph N/A   Scattered Clouds
10:35 AM 69.8 °F 64.4 °F 83% 29.84 in 10.0 mi South 19.6 mph 27.6 mph N/A Rain Rain
10:55 AM 69.8 °F 64.4 °F 83% 29.84 in 10.0 mi South 17.3 mph 27.6 mph N/A   Mostly Cloudy
11:15 AM 71.6 °F 66.2 °F 83% 29.87 in 10.0 mi SSW 19.6 mph 26.5 mph N/A   Scattered Clouds
11:35 AM 73.4 °F 68.0 °F 83% 29.85 in 10.0 mi SSW 23.0 mph 28.8 mph N/A   Clear
11:55 AM 75.2 °F 68.0 °F 78% 29.84 in 10.0 mi South 20.7 mph 24.2 mph N/A   Clear
12:15 PM 75.2 °F 68.0 °F 78% 29.84 in 10.0 mi SSW 24.2 mph 31.1 mph N/A   Clear
12:35 PM 77.0 °F 68.0 °F 74% 29.85 in 10.0 mi SSW 26.5 mph 32.2 mph N/A   Scattered Clouds
12:55 PM 77.0 °F 68.0 °F 74% 29.84 in 10.0 mi South 24.2 mph 31.1 mph N/A   Mostly Cloudy
1:15 PM 75.2 °F 68.0 °F 78% 29.85 in 10.0 mi SSW 21.9 mph 31.1 mph N/A   Mostly Cloudy
1:35 PM 77.0 °F 68.0 °F 74% 29.84 in 10.0 mi SSW 21.9 mph 29.9 mph N/A   Mostly Cloudy
1:55 PM 78.8 °F 69.8 °F 74% 29.84 in 10.0 mi SSW 21.9 mph 27.6 mph N/A   Scattered Clouds
2:15 PM 78.8 °F 68.0 °F 69% 29.85 in 10.0 mi SSW 21.9 mph 28.8 mph N/A   Mostly Cloudy
2:35 PM 78.8 °F 68.0 °F 69% 29.85 in 10.0 mi SSW 19.6 mph 27.6 mph N/A   Scattered Clouds
2:55 PM 77.0 °F 68.0 °F 74% 29.85 in 10.0 mi SW 18.4 mph 24.2 mph N/A   Scattered Clouds
3:15 PM 78.8 °F 68.0 °F 69% 29.86 in 10.0 mi SSW 21.9 mph 27.6 mph N/A   Scattered Clouds
3:35 PM 78.8 °F 68.0 °F 69% 29.85 in 10.0 mi SSW 21.9 mph 26.5 mph N/A   Mostly Cloudy
3:55 PM 78.8 °F 68.0 °F 69% 29.85 in 10.0 mi SSW 15.0 mph 27.6 mph N/A   Mostly Cloudy
4:15 PM 78.8 °F 68.0 °F 69% 29.85 in 10.0 mi SSW 18.4 mph 24.2 mph N/A   Mostly Cloudy
4:35 PM 78.8 °F 68.0 °F 69% 29.85 in 10.0 mi SSW 16.1 mph 23.0 mph N/A   Mostly Cloudy
4:55 PM 77.0 °F 68.0 °F 74% 29.85 in 10.0 mi SSW 11.5 mph - N/A   Overcast
5:15 PM 77.0 °F 68.0 °F 74% 29.85 in 10.0 mi SSW 19.6 mph 23.0 mph N/A   Overcast
5:35 PM 77.0 °F 68.0 °F 74% 29.85 in 10.0 mi SSW 13.8 mph 23.0 mph N/A   Overcast
5:55 PM 77.0 °F 68.0 °F 74% 29.85 in 10.0 mi SSW 12.7 mph 16.1 mph N/A   Overcast
6:15 PM 77.0 °F 68.0 °F 74% 29.85 in 10.0 mi SSW 13.8 mph - N/A   Overcast
6:35 PM 75.2 °F 68.0 °F 78% 29.84 in 10.0 mi SSW 8.1 mph - N/A   Overcast
6:55 PM 75.2 °F 69.8 °F 83% 29.83 in 10.0 mi South 6.9 mph - N/A   Overcast
7:15 PM 75.2 °F 69.8 °F 83% 29.83 in 10.0 mi South 8.1 mph - N/A   Overcast
7:35 PM 75.2 °F 68.0 °F 78% 29.83 in 10.0 mi South 9.2 mph - N/A   Overcast
7:55 PM 75.2 °F 68.0 °F 78% 29.83 in 10.0 mi South 9.2 mph - N/A   Overcast
8:15 PM 75.2 °F 68.0 °F 78% 29.82 in 10.0 mi South 12.7 mph - N/A   Overcast
8:35 PM 75.2 °F 68.0 °F 78% 29.81 in 10.0 mi South 12.7 mph 19.6 mph N/A   Mostly Cloudy
8:55 PM 75.2 °F 68.0 °F 78% 29.83 in 10.0 mi South 15.0 mph 21.9 mph N/A   Mostly Cloudy
9:15 PM 75.2 °F 68.0 °F 78% 29.85 in 10.0 mi South 17.3 mph - N/A   Overcast
9:35 PM 75.2 °F 66.2 °F 73% 29.85 in 10.0 mi SSW 18.4 mph 24.2 mph N/A   Scattered Clouds
9:55 PM 73.4 °F 68.0 °F 83% 29.91 in 7.0 mi West 18.4 mph 28.8 mph 0.02 in Rain , Thunderstorm Rain
10:15 PM 68.0 °F 62.6 °F 83% 29.93 in 7.0 mi WSW 18.4 mph 24.2 mph 0.09 in Rain , Thunderstorm Heavy Thunderstorms and Rain
10:35 PM 68.0 °F 62.6 °F 83% 29.89 in 10.0 mi SW 6.9 mph - 0.16 in Thunderstorm Overcast
10:55 PM 68.0 °F 62.6 °F 83% 29.89 in 10.0 mi SSW 10.4 mph - 0.16 in   Scattered Clouds
11:15 PM 68.0 °F 62.6 °F 83% 29.89 in 10.0 mi SSW 9.2 mph - N/A   Scattered Clouds
11:35 PM 66.2 °F 62.6 °F 88% 29.90 in 10.0 mi SSW 6.9 mph - N/A   Clear
11:55 PM 68.0 °F 62.6 °F 83% 29.90 in 10.0 mi South 8.1 mph - N/A   Scattered Clouds